Showing default

ELEVATION-1, 62677

Orbit data source: Space-Track

ELEVATION-1, 62677 is a UK payload satellite in SSO that was launched on Tue, 14 Jan 2025 UTC via an FALCON 9 launch vehicle from the Air Force Western Test Range (AFWTR). Payload-class satellites include a variety of spacecraft equipped with specific instruments for various scientific and technological missions. These include communications satellites like Starlink; space stations such as the ISS; scientific satellites like the Hubble; Earth observation satellites from companies like Planet Labs, Umbra, and HawkEye 360; GPS; miniature CubeSats for education and research; and military/defense satellites.

Loading next visibility...
Identifier
62677, 2025-009BW
Orbit
SSO
Country
Flag of UKUK
Related business
Manufacturer
XDLINX
Mission
Operational Commercial Communications
Bus & Motor
CUBESAT 6U, Unknown motor
Mass
~10 kg wet, ~10 kg dry
Launch date (UTC)
2025-01-14 (1 year ago)
Launch vehicle
FALCON 9
Launch site
Air Force Western Test Range (AFWTR)
Object type
Payload
Rocket body
Debris
Shape & HBR
Box + 2 Pan, 0.5 m
Radar Cross Section
0.080 m², Medium (>0.1 m² and < 1m²)

Expand to show TLE details & history
Last TLE update: 4 hours ago

TLE from 4 hours ago
0 ELEVATION-1
1 62677U 25009BW  26193.22627199  .00018257  00000-0  41152-3 0  9992
2 62677  97.3826 278.7580 0003916 205.1302 154.9756 15.43304021140683
Epoch: 2026-07-12T05:25Z
TLE epoch observation values (Epoch: 2026-07-12T05:25:49.899Z)
Latitude
-0.00004°
Longitude
-92.82809°
Altitude
441.907 km
Speed
7.645 km/s
True Right ascension
18h 35m 01s
True Declination
0° 00' 00"
Sunlit
Object was in full shadow at epoch
Visualization orbit readout
Latitude
Unknown
Longitude
Unknown
Altitude
Unknown
Speed
Unknown
Apparent Right ascension
Unknown
Apparent Declination
Unknown
Sunlit
N/A
Visualization observer readout
Local Sidereal Time
21:50:48
Azimuth
Unknown
Elevation
Unknown
Doppler factor
Unknown
Orbital elements
Apogee altitude
435.967 km
Perigee altitude
430.632 km
Semi-major axis
6,811.437 km
Eccentricity
0.00039
Inclination
97.3826°
RAAN
278.758°
Arg. of periapsis
205.1302°
True anomaly
154.99457°
Mean anomaly
154.9756°
Eccentric anomaly
154.98509°
Mean motion
3.86087 °/min
Orbital period
93.24 mins
BSTAR
0.00041152
Loading maneuver chart data...
Computing Atmospheric mass density...
Loading historical data...
Loading historical data...
Loading historical data...
Loading historical data...
Loading historical data...
Loading historical data...
Loading historical data...

Documentation

Showing up to 5 results
|